Location: Fort Worth, Tx
(32.7431°N, 97.3695°W)
Time: 10:33:06
(UTC-04:00)

Explorer 11/Cluster Stage 4 - Pass Details

Date: 01 March 2024
Orbit: 465 x 1219 km, 28.8° (Epoch: 24 April)

Event Time Altitude Azimuth Distance (km) Brightness Sun altitude
Exits shadow 07:00:13 10° 237° (WSW) 2,890 9.0 -12.6°
Reaches altitude 10° 07:00:20 10° 237° (WSW) 2,874 9.0 -12.6°
Maximum altitude 07:02:47 12° 216° (SW) 2,635 8.9 -12.1°
Drops below altitude 10° 07:05:08 10° 195° (SSW) 2,686 9.2 -11.6°
Sets 07:09:29 0° 165° (SSE) 3,425 10.1 -10.7°
